Theta_e
324 330 338 338 346 348 355 349 345 346 348 345 341 344 348 347 344 354 347 347 343 342 346 347 343 342 340 342 343 343 343 342 342 341 339 338 339 340 340 341 346 346 345 346 344 340 337 337 337
325 331 337 341 349 352 351 348 347 344 345 343 343 345 346 350 346 348 348 346 341 343 343 343 342 342 341 339 339 340 342 343 343 342 341 340 341 339 339 339 340 340 340 341 341 341 341 338 338
321 330 338 347 352 352 351 348 346 342 342 342 343 344 347 347 345 346 347 340 342 344 342 339 337 337 335 334 335 336 336 336 337 338 340 341 341 341 341 340 339 338 338 339 341 341 341 340 338
328 333 336 346 351 347 348 345 344 345 343 344 345 349 344 344 345 346 344 334 340 340 334 332 328 324 321 321 324 327 328 329 328 329 331 331 330 330 333 335 337 337 338 339 341 342 342 342 340
325 326 336 344 349 348 345 339 344 345 344 345 344 348 345 342 345 344 335 337 330 332 328 318 317 318 318 318 318 320 321 323 324 325 327 326 332 330 325 326 326 325 324 327 334 337 337 338 340
329 331 342 347 345 344 342 338 342 344 345 346 345 345 343 344 344 341 337 334 329 323 318 321 325 326 326 326 324 322 321 321 322 323 326 329 331 330 336 330 327 326 325 321 321 322 330 335 337
327 334 340 341 347 344 342 339 344 345 346 346 343 347 342 340 341 338 339 330 324 319 324 326 326 327 327 327 327 326 326 325 324 322 321 321 322 322 323 325 326 326 328 329 327 323 324 323 331
325 334 342 343 345 346 342 339 341 346 347 342 341 345 344 338 339 338 333 328 321 324 327 328 328 328 328 328 328 326 326 325 324 322 320 317 316 319 319 319 322 322 324 323 327 329 327 329 329
321 326 339 339 343 344 340 348 345 343 345 343 341 342 340 334 339 339 337 332 327 330 331 331 329 329 329 332 329 327 325 323 321 319 318 318 314 316 315 315 319 318 321 321 320 322 321 325 323
323 324 331 335 341 345 347 347 347 347 345 344 342 340 339 333 333 330 332 335 336 334 331 330 329 330 331 328 326 324 323 321 320 317 316 315 313 312 312 312 313 314 316 314 315 316 317 317 317
334 338 337 340 342 345 345 342 342 348 348 344 344 342 340 335 330 329 329 330 330 331 330 329 329 328 328 327 326 323 321 319 316 315 315 314 312 310 310 312 313 313 312 313 313 314 314 313 314
338 337 338 336 341 342 343 337 344 344 346 343 342 341 340 337 332 329 328 330 331 332 331 331 330 330 328 327 326 323 319 317 315 314 313 312 309 308 308 310 311 310 310 310 310 311 311 311 311
335 335 336 338 340 340 339 340 342 343 344 343 342 341 341 338 334 329 330 331 332 331 331 330 330 329 326 324 324 320 317 315 313 313 312 310 308 306 308 309 308 308 308 308 309 309 309 309 309
332 336 337 336 340 341 344 343 342 343 343 344 344 342 338 331 331 331 330 331 331 331 330 329 328 327 323 321 321 317 315 314 313 312 310 309 307 305 307 308 307 306 307 307 308 308 308 308 308
329 339 338 338 336 341 341 345 345 341 341 342 335 333 332 332 332 332 331 331 331 329 326 325 324 321 319 318 317 315 314 313 312 311 310 308 306 304 305 305 306 307 307 307 307 307 307 307 307
339 338 341 339 337 336 338 347 343 340 340 339 331 332 333 333 333 332 332 331 330 328 326 324 321 319 316 317 315 314 313 312 311 310 308 306 305 305 306 307 307 307 308 308 308 308 308 308 308
339 343 343 341 337 337 338 347 343 340 340 340 331 331 334 333 333 333 333 331 329 329 327 323 319 317 315 315 313 313 313 312 310 309 308 306 305 305 305 306 307 307 307 308 308 307 308 307 308
342 343 341 339 338 339 341 340 341 341 341 340 332 330 334 334 334 333 331 329 329 328 326 320 316 316 315 314 314 313 312 310 309 308 306 306 306 306 306 307 307 308 308 307 307 307 307 307 308
337 337 337 336 338 339 339 339 338 342 340 340 331 331 334 334 334 331 329 328 326 325 324 319 314 316 313 313 314 312 310 309 308 307 306 306 306 307 307 307 308 308 308 308 308 308 307 307 308
335 336 336 340 338 338 338 338 337 338 341 339 336 332 334 334 333 331 328 326 326 325 322 317 313 315 314 314 314 312 310 309 308 308 307 307 307 307 308 308 308 308 308 307 307 308 308 308 308
328 331 336 338 339 340 341 341 341 340 344 340 336 332 334 335 334 330 328 326 324 323 320 316 314 314 314 313 312 310 309 309 309 309 309 308 308 308 309 309 308 308 309 309 308 308 308 308 308
325 325 328 332 342 344 339 346 332 339 345 342 340 336 336 335 333 330 328 326 323 321 318 316 314 313 313 312 311 311 310 310 311 311 310 310 309 309 310 310 310 308 309 309 308 308 308 308 308
325 325 325 326 338 330 343 336 337 345 348 345 345 338 336 335 333 330 328 325 322 319 317 315 315 314 313 312 310 310 310 310 310 311 310 311 310 311 310 309 309 309 308 307 308 308 307 307 308
325 323 320 321 319 322 329 331 344 350 349 346 345 342 339 336 334 329 328 324 320 319 317 315 315 314 314 312 311 311 310 311 311 311 311 311 311 310 309 309 308 308 308 307 307 308 308 307 308
321 317 319 320 321 322 327 339 339 347 346 347 346 342 339 337 333 330 327 325 319 317 316 315 315 314 313 312 310 310 310 312 312 311 311 311 310 310 308 309 309 308 307 307 307 308 307 307 307
318 317 319 322 331 328 339 342 342 343 343 343 343 343 340 337 332 330 328 325 319 317 316 315 315 314 313 312 310 310 310 312 311 311 310 310 309 309 309 309 307 305 306 307 307 306 306 307 308
320 320 318 320 325 328 339 350 347 342 343 342 343 343 340 337 332 332 329 324 318 317 316 315 315 314 313 312 310 310 310 312 312 310 309 309 309 309 309 309 307 305 303 303 306 307 307 306 306
319 320 323 322 326 328 336 354 348 347 342 345 345 344 341 334 333 331 322 318 316 316 316 315 315 314 313 312 311 310 310 312 311 311 310 309 308 308 308 307 306 304 304 301 305 307 306 305 306
318 319 324 324 330 334 337 345 341 343 343 346 344 341 338 335 334 325 316 314 315 316 315 315 314 313 313 312 311 311 310 311 311 310 309 308 308 308 309 309 306 305 303 301 303 305 306 306 306
318 319 320 324 325 336 335 334 340 337 341 343 342 340 337 334 331 319 315 313 313 314 315 315 314 313 313 312 311 311 311 311 311 309 308 308 308 310 309 309 308 305 301 304 306 305 307 307 307
Wind_Speed
4 2 3 4 5 5 1 2 4 4 5 12 10 11 11 8 5 9 18 18 16 15 14 14 16 17 18 19 18 17 16 15 15 14 13 11 9 9 9 8 8 7 5 5 6 7 9 9 8
3 3 4 2 5 4 2 3 7 7 14 15 15 14 15 15 7 13 11 15 17 18 17 16 17 18 18 18 17 17 17 15 14 13 13 11 9 7 6 5 4 3 2 4 6 6 8 11 10
2 2 3 4 3 4 3 4 3 3 4 3 5 6 5 8 10 7 20 19 20 20 19 19 20 21 22 21 20 19 17 16 15 14 13 12 11 8 5 2 1 3 3 3 4 7 10 10 15
3 3 4 5 2 4 5 7 3 3 7 10 11 7 4 13 7 20 22 23 24 21 20 21 24 25 25 25 24 23 22 21 20 19 18 15 14 11 7 6 5 5 5 6 7 7 9 12 13
1 3 5 3 3 5 7 4 7 5 5 11 5 8 5 11 28 29 27 26 28 25 25 27 27 27 26 24 22 20 19 19 18 18 17 14 16 15 13 12 11 11 11 9 8 10 10 12 14
3 3 4 4 7 12 1 5 7 10 14 14 11 10 3 27 32 28 28 29 28 30 28 27 25 25 24 21 19 18 18 17 15 16 16 14 14 15 12 11 14 16 16 13 11 10 11 14 16
3 5 4 4 2 2 5 5 8 14 15 7 11 9 5 13 25 29 25 31 30 29 27 25 23 22 19 16 15 14 13 13 13 15 17 14 14 13 13 15 17 16 18 13 13 13 14 13 14
5 3 4 4 5 3 6 5 7 18 9 15 17 7 8 12 35 30 30 31 30 27 22 20 19 16 15 18 16 13 12 13 13 16 17 17 13 12 13 14 18 18 18 18 19 15 18 13 13
4 4 3 7 11 7 6 7 4 6 16 7 3 14 17 30 37 32 29 26 25 22 17 14 15 15 17 18 14 14 12 12 14 15 15 17 18 14 15 16 19 17 19 18 18 17 12 10 8
5 4 8 8 8 15 16 18 10 8 9 10 16 13 29 32 32 26 23 21 23 21 20 18 14 10 13 14 13 12 12 12 11 14 16 19 19 18 16 14 14 14 18 17 17 16 16 17 17
4 4 4 11 9 19 13 5 3 17 8 19 21 18 19 24 26 25 23 29 30 25 22 19 18 16 12 9 9 11 10 10 12 13 16 20 21 21 18 15 17 18 20 20 20 20 21 22 23
4 12 4 8 9 7 12 9 9 1 8 17 18 21 20 15 16 23 22 26 29 25 20 16 12 11 10 7 7 8 9 9 12 15 17 20 23 22 16 17 18 21 22 22 22 22 23 24 25
4 9 6 10 11 10 10 7 8 6 17 15 16 16 15 16 15 19 23 26 27 23 17 13 10 10 10 8 8 9 10 10 13 15 17 21 23 20 14 15 18 20 20 20 21 23 24 26 27
4 10 14 7 7 8 12 9 7 9 16 15 17 16 9 16 22 24 25 24 26 23 20 16 13 10 7 8 10 13 12 12 13 15 18 22 24 19 12 14 17 17 19 19 19 21 23 23 26
10 8 10 8 5 4 10 3 9 16 17 13 11 14 17 19 28 26 28 29 29 25 22 18 13 10 9 10 13 13 12 12 14 16 18 22 22 20 16 15 15 15 16 17 18 19 20 20 22
6 6 5 2 1 2 3 5 4 13 15 11 16 17 17 13 23 27 30 30 29 26 19 15 11 11 11 14 16 14 13 13 14 16 19 21 18 18 16 16 16 16 14 16 19 21 22 23 23
7 4 3 0 4 3 4 3 9 9 14 13 18 16 16 15 18 24 29 29 26 22 18 14 10 12 14 16 14 13 13 13 13 15 18 17 18 16 15 16 17 18 17 18 20 21 20 24 23
5 5 2 5 5 5 5 8 4 9 14 13 15 15 16 17 16 24 30 28 22 17 15 14 12 12 11 16 14 15 14 13 14 16 15 13 14 15 15 17 17 18 17 17 21 19 21 19 20
3 6 4 1 3 4 9 14 9 12 9 6 11 13 13 14 18 24 28 29 25 18 12 11 10 11 11 12 12 13 15 13 14 13 11 12 13 13 15 16 16 16 17 16 17 18 22 22 24
6 7 5 3 9 6 4 14 8 14 13 11 13 14 17 10 13 19 23 26 23 19 12 11 11 10 12 11 6 17 14 10 10 9 11 11 12 13 14 15 17 16 17 17 18 16 18 18 21
4 8 6 10 4 2 3 9 4 6 11 14 13 15 16 22 19 15 20 22 25 21 16 11 12 12 11 12 15 15 10 10 9 8 8 10 12 12 13 16 17 16 15 18 18 18 16 15 20
6 8 8 8 6 6 9 5 6 5 17 19 13 11 16 17 15 16 21 22 25 21 17 16 12 12 10 9 9 10 9 8 6 6 7 8 8 12 11 14 14 16 16 16 18 17 16 14 16
11 6 7 10 9 5 2 3 7 5 5 5 5 7 14 15 15 16 20 24 27 24 20 16 14 12 12 10 6 8 7 6 6 6 7 9 10 10 11 13 13 16 17 18 16 15 16 15 13
6 3 4 4 4 1 7 6 3 2 3 3 8 9 6 11 10 14 22 25 26 25 21 18 17 15 11 8 8 7 7 3 5 7 8 9 10 11 11 13 14 15 16 18 16 14 13 16 14
4 6 2 3 4 6 3 3 7 9 12 12 15 13 14 14 13 13 18 19 25 27 23 20 19 19 12 9 7 7 5 4 4 5 6 8 10 12 12 14 14 15 16 16 15 14 15 14 15
8 9 6 6 4 5 2 5 5 9 7 8 13 18 20 20 15 15 22 22 27 29 26 21 22 21 13 8 7 6 4 3 4 5 5 6 8 10 10 12 13 14 14 15 16 13 15 16 13
4 3 9 6 0 2 3 4 5 7 13 8 16 15 16 17 19 18 22 23 26 29 28 26 23 20 15 9 7 6 4 2 3 3 5 6 6 9 11 10 12 13 19 16 14 14 14 15 15
8 5 2 3 4 5 3 3 5 8 10 7 11 19 19 19 19 16 17 25 27 32 29 27 25 22 16 12 8 6 4 1 1 2 3 5 8 11 10 10 11 13 19 19 14 13 15 13 15
1 3 3 5 5 5 4 6 6 11 9 10 12 16 21 20 18 13 21 25 32 33 33 29 28 23 18 14 11 8 5 2 2 0 3 5 7 9 9 10 11 14 20 19 17 12 13 15 17
9 10 7 5 5 2 3 6 7 13 15 13 15 17 19 18 15 15 25 28 30 33 33 29 29 25 20 15 10 7 4 3 2 1 3 5 7 8 8 9 11 13 19 19 17 14 13 16 16
Wind_Direction
212 67 50 53 65 66 77 296 150 101 70 61 67 79 86 54 90 125 133 134 126 116 110 96 91 87 86 85 84 84 82 78 72 71 70 69 88 103 108 107 110 116 132 147 163 179 187 200 209
166 54 41 82 81 81 15 286 147 105 128 128 96 90 76 72 79 128 117 134 120 114 108 101 98 94 91 88 85 81 79 79 77 72 74 80 88 97 100 103 105 110 154 208 214 227 222 214 216
86 62 66 73 74 109 179 239 180 177 152 80 91 39 71 103 97 132 139 136 123 114 108 102 97 94 90 86 82 79 76 72 66 61 58 57 58 61 65 75 142 181 208 238 252 255 260 249 236
118 47 48 44 331 245 199 218 233 179 68 85 124 67 58 83 110 135 141 139 121 115 108 104 99 95 91 86 84 81 78 76 71 63 58 56 51 40 26 15 1 349 326 307 288 269 258 266 262
69 60 63 93 264 264 206 230 181 190 89 108 97 111 78 87 142 142 143 133 121 118 112 107 99 90 84 81 80 79 74 68 63 56 52 52 38 29 25 24 29 14 358 336 303 282 282 273 271
36 87 88 115 242 246 98 169 187 113 111 103 103 100 103 136 142 149 144 129 121 122 118 108 101 95 88 80 75 72 69 59 50 43 47 60 43 32 20 16 12 2 353 346 337 323 304 278 268
122 93 167 180 284 133 188 209 198 127 131 133 151 112 161 137 145 147 146 130 129 127 122 114 105 94 84 76 69 61 50 37 32 22 13 6 20 32 41 33 19 16 18 351 346 341 335 319 296
136 87 119 200 177 221 237 186 154 146 146 135 139 156 170 124 154 144 136 133 133 130 118 111 104 99 98 92 80 70 57 36 23 15 10 9 360 5 9 9 7 7 12 9 10 355 349 320 326
127 76 204 166 161 181 169 125 124 123 136 190 227 137 147 130 139 134 134 135 133 127 121 122 122 118 113 104 98 88 62 41 32 37 27 12 3 351 353 356 6 4 10 15 14 15 2 17 360
124 160 202 224 156 152 151 129 132 123 131 109 112 124 133 137 136 134 137 138 132 130 118 115 133 147 120 110 87 67 61 58 52 33 28 20 11 7 1 6 3 8 10 8 5 2 358 355 352
163 128 181 131 155 146 145 116 116 125 139 156 152 155 154 145 145 141 141 142 140 130 122 114 111 106 97 86 62 76 76 69 55 43 26 15 8 6 8 8 14 10 9 5 356 353 352 350 346
144 158 152 162 153 125 146 134 131 157 172 162 157 159 161 160 156 150 152 147 135 127 121 119 112 100 84 90 64 73 89 77 57 45 27 17 12 11 20 19 15 9 5 358 355 354 350 344 341
174 197 93 120 144 137 131 139 154 146 152 167 160 167 175 168 164 150 144 134 128 125 121 116 110 94 80 74 100 106 105 84 68 45 32 21 15 15 14 23 11 5 3 7 4 1 355 348 343
196 70 103 71 145 144 128 142 113 154 163 173 168 178 157 124 122 112 119 128 136 129 118 112 104 93 84 77 119 119 108 90 66 48 31 19 12 15 22 16 9 15 15 12 8 4 359 354 348
134 102 62 34 339 98 103 63 149 156 165 176 135 141 128 128 123 128 131 127 139 124 117 107 106 94 81 96 113 116 105 85 64 46 27 15 19 30 24 21 31 22 16 7 5 360 353 348 344
84 56 91 294 344 199 177 213 187 161 159 168 137 139 133 143 139 143 141 134 134 134 123 116 108 94 85 108 113 111 99 80 62 43 28 21 35 33 36 37 30 17 13 5 1 357 354 352 350
28 140 99 333 139 110 40 126 174 181 167 175 155 155 144 141 146 149 145 145 141 138 130 119 123 109 100 107 110 110 100 81 62 40 25 35 39 34 34 37 30 22 17 14 358 351 354 349 343
157 134 220 167 191 163 156 210 219 209 185 185 164 159 153 153 154 144 136 140 137 133 122 115 122 115 113 106 107 114 104 87 62 42 41 51 40 38 39 35 30 23 13 9 1 353 350 348 345
161 138 136 88 202 159 245 266 188 199 206 181 172 168 163 160 150 139 132 137 133 121 111 98 117 109 107 119 110 122 113 94 67 49 51 43 36 35 30 24 20 15 10 2 355 352 352 353 354
204 168 187 346 252 163 347 267 179 202 182 173 190 185 163 147 145 141 136 134 138 133 130 113 109 115 109 101 112 129 121 95 67 55 44 39 27 19 18 8 6 8 7 9 7 1 347 345 358
248 173 204 211 235 62 60 313 204 163 172 183 198 186 164 160 157 154 147 138 140 139 137 126 119 117 112 108 112 122 105 79 57 32 14 18 16 10 5 6 6 5 3 3 4 4 359 336 350
258 242 237 210 128 218 139 256 294 194 187 189 183 164 167 166 158 152 148 140 142 145 143 144 131 118 110 110 108 99 85 70 43 354 343 358 2 10 8 1 1 10 6 2 3 360 358 349 338
243 276 265 251 180 125 194 112 284 93 183 183 352 199 172 170 164 156 149 147 147 151 149 145 141 128 116 99 104 106 87 78 40 31 12 20 20 30 18 16 16 11 13 7 355 356 359 355 341
242 250 34 55 159 244 198 146 269 213 138 95 93 114 170 172 159 157 148 148 148 157 153 151 150 146 123 108 124 119 104 70 55 34 23 24 33 36 28 19 17 18 15 12 8 1 1 2 359
144 76 343 327 345 233 181 78 216 202 197 198 178 144 154 174 158 165 155 159 151 160 160 154 157 152 137 132 125 122 114 84 61 48 35 29 29 28 31 26 25 20 11 8 3 4 1 2 7
195 156 161 202 207 264 51 227 265 217 206 170 160 166 159 177 162 165 169 172 156 168 164 163 165 151 153 148 128 124 138 88 66 59 57 40 32 23 18 26 25 20 9 9 9 9 12 10 3
246 193 180 138 274 79 200 304 280 238 270 170 177 163 173 169 162 169 178 170 162 169 169 169 167 155 162 155 153 161 145 104 68 80 50 27 24 19 16 23 20 14 15 5 6 10 9 13 12
170 164 78 12 183 237 252 199 233 207 240 242 176 176 181 159 162 170 156 160 164 170 173 174 169 167 167 168 166 156 153 120 92 60 30 30 30 33 29 26 14 8 5 7 15 12 12 9 8
281 237 129 128 140 189 195 253 215 206 187 185 170 162 160 163 168 154 149 154 164 168 170 173 170 164 168 174 171 174 158 127 164 312 44 50 38 27 22 12 10 2 1 5 6 10 6 10 3
212 210 163 140 252 169 170 262 187 193 181 172 168 167 166 166 161 151 155 156 156 166 169 172 170 170 172 172 172 171 182 177 198 289 27 17 12 9 15 12 8 5 4 11 19 20 13 2 3